"Pseudo-MPEC" for P11XRTx

Created 2024 Sep 7 18:22:10 UT using Find_Orb

Click here for an explanation of pseudo-MPECs

 
 Astrometry: 
     P11XRTx* C2024 09 03.54922302 09 42.352-14 29 57.00   ~93Fq 21.21wXNEOCPF51
     P11XRTx  C2024 09 03.55897502 09 43.186-14 30 00.73   ~93Fq 21.17wXNEOCPF51
     P11XRTx  C2024 09 03.56871602 09 43.995-14 30 04.42   ~93Fq 21.17wXNEOCPF51
     P11XRTx  C2024 09 03.57847902 09 44.820-14 30 08.20   ~93Fq 21.52wXNEOCPF51
     P11XRTx KC2024 09 04.10517602 10 31.57 -14 33 34.7    ~9437 21.0 GVNEOCPL01
     P11XRTx !C2024 09 04.10668002 10 32.040-14 33 33.06   ~94Aq 20.6 GVNEOCPJ04
     P11XRTx KC2024 09 04.10853902 10 31.85 -14 33 35.9    ~9437 20.8 GVNEOCPL01
     P11XRTx KC2024 09 04.11191902 10 32.13 -14 33 37.3    ~9437 20.8 GVNEOCPL01
     P11XRTx !C2024 09 04.11548802 10 32.785-14 33 36.68   ~94Aq 20.7 GVNEOCPJ04
     P11XRTx !C2024 09 04.12429102 10 33.530-14 33 40.01   ~94Aq 20.2 GVNEOCPJ04
     P11XRTx |C2024 09 04.35767002 10 53.830-14 35 00.30   ~949M 20.8 GVNEOCP807
     P11XRTx |C2024 09 04.36310002 10 54.320-14 35 02.40   ~949M 20.9 GVNEOCP807
     P11XRTx |C2024 09 04.36861002 10 54.780-14 35 04.40   ~949M 20.5 GVNEOCP807
     P11XRTx 1C2024 09 07.11262 02 14 58.12 -14 53 41.3    ~975b 21.3 VXNEOCP033
     P11XRTx 1C2024 09 07.11386 02 14 58.25 -14 53 41.7    ~975b 21.4 VXNEOCP033
     P11XRTx 1C2024 09 07.11510 02 14 58.33 -14 53 42.2    ~975b 21.6 VXNEOCP033
     P11XRTx 1C2024 09 07.11695 02 14 58.49 -14 53 43.5    ~975b 21.3 VXNEOCP033
     P11XRTx |C2024 09 07.27241002 15 12.560-14 54 32.30   ~977b 20.7 GVNEOCP807
     P11XRTx |C2024 09 07.27682002 15 12.960-14 54 34.40   ~977b 20.8 GVNEOCP807
     P11XRTx |C2024 09 07.28115002 15 13.310-14 54 36.00   ~977b 20.8 GVNEOCP807
     P11XRTx KC2024 09 07.42063402 15 25.528-14 55 46.06   ~97Aq 21.19GVNEOCPI52
     P11XRTx KC2024 09 07.42727102 15 26.096-14 55 49.30   ~97Aq 21.43GVNEOCPI52
     P11XRTx KC2024 09 07.43276002 15 26.572-14 55 51.02   ~97Aq 20.76GVNEOCPI52

Station data:
(033) Karl Schwarzschild Observatory, Tautenburg  (N50.980139 E11.711240)
   Germany.  Observer B. Stecklum. 1.34-m f/3 Schmidt + CCD.
(807) Cerro Tololo Observatory, La Serena  (S30.169133 W70.805900)  Chile.
   Observer R. Holmes. 0.61-m f/6.5 astrograph + CCD.
(F51) Pan-STARRS 1, Haleakala  (N20.707234 W156.255910)  US/Hawaii.
   Observers J. Bulger, T. Lowe, A. Schultz, M. Willman. Measurers K.
   Chambers, S. Chastel, T. de Boer, L. Denneau, J. Fairlamb, H. Flewelling,
   M. Huber, C.-C. Lin, E. Magnier, Y. Ramanjooloo, R. Wainscoat, R. Weryk.
   1.8-m Ritchey-Chrétien + CCD.
(I52) Steward Observatory, Mt. Lemmon Station  (N32.442570 W110.788920)
   US/Arizona.  Observers T. A. Pruyne, B. M. Africano, E. J. Christensen, G.
   A. Farneth, D. C. Fuls, A. R. Gibbs, A. D. Grauer, H. Gröller, J. A.
   Johnson, R. A. Kowalski, S. M. Larson, G. J. Leonard, D. Rankin, R. L.
   Seaman, F. C. Shelly, K. W. Wierzchoś. 1.0-m prime focus + CCD.
(J04) ESA Optical Ground Station, Tenerife  (N28.300921 W16.511830)  Canary
   Islands (Spain).  Observer R. Kresken. Measurers M. Micheli, D. Koschny,
   E. Schwab, M. Busch, A. Knöfel. 1.0-m f/4.4 reflector + CCD.
(L01) Višnjan Observatory, Tičan  (N45.290897 E13.749300)  Croatia.
   Observers K. Korlević, D. Pujagic, V. Dobos. Measurers D. Pujagic, K.
   Korlević. 1.0-m f/2.9 reflector + CCD.

Orbital elements:  P11XRTx
   Perihelion 2024 Dec 6.75421 +/- 0.211 TT = 18:06:04 (JD 2460651.25421)
Epoch 2024 Sep  7.0 TT = JDT 2460560.5   Earth MOID: 0.0700   Ju: 0.0012
M 345.52624308 +/- 0.9              (J2000 ecliptic)             AutoNEOCP
n   0.15948302 +/- 0.0098           Peri.   10.31944 +/- 1.3
a   3.36764572 +/- 0.138            Node    69.50564 +/- 0.8
e   0.6878655 +/- 0.0107            Incl.   12.56947 +/- 0.045
P   6.18002                H 19.54  G  0.15   U  9.6
q 1.05115815 +/- 0.00839    Q 5.68413330 +/- 0.269
From 23 observations 2024 Sept. 3-7; mean residual 0".20
Residuals in arcseconds: 
240903 F51  .10-  .06-    240904 J04  .06+  .09-    240907 033  .03-  .67-    
240903 F51  .10+  .03-    240904 J04  .07+  .05+    240907 807  .23-  .25+    
240903 F51  .04-  .03+    240904 807  .48-  .20-    240907 807  .18+  .00     
240903 F51  .02+  .00     240904 807  .02-  .20-    240907 807  .03-  .21+    
240904 L01  .24+  .25+    240904 807  .09-  .06-    240907 I52  .18-  .29+    
240904 J04  .08+  .04+    240907 033  .04-  .25-    240907 I52  .03-  .19-    
240904 L01  .15+  .36+    240907 033  .31+  .14-    240907 I52  .18+  .38+    
240904 L01  .04+  .27+    240907 033  .07-  .13-    

Ephemerides (geocentric):
Date (UTC) HH   RA             Dec           delta  r     elong  mag " sig PA
---- --------  ------------   ------------  ------ ------ -----  --- --------
2024 09 07 18  02 15 54.638   -14 57 54.39  .70960 1.5760 132.4 21.0 .066  85
2024 09 07 19  02 15 58.329   -14 58 11.79  .70909 1.5756 132.5 21.0 .071  80
2024 09 07 20  02 16 02.021   -14 58 29.19  .70857 1.5753 132.5 21.0 .075  76
2024 09 07 21  02 16 05.712   -14 58 46.61  .70806 1.5749 132.5 21.0 .080  71
2024 09 07 22  02 16 09.404   -14 59 04.05  .70755 1.5745 132.5 21.0 .086  68
2024 09 07 23  02 16 13.095   -14 59 21.49  .70704 1.5742 132.5 21.0 .092  64
2024 09 08 00  02 16 16.787   -14 59 38.95  .70653 1.5738 132.5 21.0 .099  62
2024 09 08 01  02 16 20.478   -14 59 56.42  .70602 1.5735 132.6 21.0 .105  59
2024 09 08 02  02 16 24.169   -15 00 13.90  .70551 1.5731 132.6 21.0 .112  57
2024 09 08 03  02 16 27.861   -15 00 31.40  .70500 1.5727 132.6 21.0 .119  55
2024 09 08 04  02 16 31.552   -15 00 48.91  .70449 1.5724 132.6 21.0 .127  53
2024 09 08 05  02 16 35.243   -15 01 06.43  .70398 1.5720 132.6 21.0 .135  51
2024 09 08 06  02 16 38.935   -15 01 23.96  .70347 1.5716 132.6 21.0 .143  49
2024 09 08 07  02 16 42.626   -15 01 41.50  .70296 1.5713 132.7 21.0 .151  48
2024 09 08 08  02 16 46.318   -15 01 59.06  .70245 1.5709 132.7 21.0 .159  47
2024 09 08 09  02 16 50.009   -15 02 16.63  .70194 1.5705 132.7 21.0 .168  45
2024 09 08 10  02 16 53.700   -15 02 34.22  .70143 1.5702 132.7 21.0 .176  44
2024 09 08 11  02 16 57.392   -15 02 51.81  .70092 1.5698 132.7 21.0 .185  43
2024 09 08 12  02 17 01.083   -15 03 09.42  .70042 1.5695 132.7 21.0 .194  42
2024 09 08 13  02 17 04.775   -15 03 27.04  .69991 1.5691 132.8 21.0 .203  42
2024 09 08 14  02 17 08.466   -15 03 44.67  .69940 1.5687 132.8 21.0 .213  41
2024 09 08 15  02 17 12.157   -15 04 02.31  .69889 1.5684 132.8 21.0 .222  40
2024 09 08 16  02 17 15.849   -15 04 19.97  .69839 1.5680 132.8 21.0 .232  39
2024 09 08 17  02 17 19.540   -15 04 37.64  .69788 1.5676 132.8 21.0 .242  39
2024 09 08 18  02 17 23.232   -15 04 55.32  .69737 1.5673 132.8 21.0 .252  38
2024 09 08 19  02 17 26.923   -15 05 13.01  .69686 1.5669 132.9 21.0 .262  37
2024 09 08 20  02 17 30.615   -15 05 30.72  .69636 1.5666 132.9 21.0 .272  37
2024 09 08 21  02 17 34.306   -15 05 48.44  .69585 1.5662 132.9 21.0 .282  36
2024 09 08 22  02 17 37.998   -15 06 06.17  .69535 1.5658 132.9 21.0 .293  36
2024 09 08 23  02 17 41.689   -15 06 23.91  .69484 1.5655 132.9 21.0 .303  35
2024 09 09 00  02 17 45.381   -15 06 41.66  .69433 1.5651 132.9 21.0 .314  35
2024 09 09 01  02 17 49.073   -15 06 59.43  .69383 1.5647 133.0 21.0 .325  34
2024 09 09 02  02 17 52.764   -15 07 17.20  .69332 1.5644 133.0 21.0 .336  34
2024 09 09 03  02 17 56.456   -15 07 34.99  .69282 1.5640 133.0 21.0 .347  34
2024 09 09 04  02 18 00.147   -15 07 52.79  .69231 1.5636 133.0 21.0 .358  33
2024 09 09 05  02 18 03.839   -15 08 10.61  .69181 1.5633 133.0 21.0 .370  33
2024 09 09 06  02 18 07.531   -15 08 28.43  .69130 1.5629 133.0 21.0 .381  32
2024 09 09 07  02 18 11.223   -15 08 46.27  .69080 1.5626 133.1 20.9 .393  32
2024 09 09 08  02 18 14.914   -15 09 04.12  .69030 1.5622 133.1 20.9 .405  32
2024 09 09 09  02 18 18.606   -15 09 21.98  .68979 1.5618 133.1 20.9 .417  31
2024 09 09 10  02 18 22.298   -15 09 39.85  .68929 1.5615 133.1 20.9 .429  31
2024 09 09 11  02 18 25.990   -15 09 57.73  .68879 1.5611 133.1 20.9 .441  31
2024 09 09 12  02 18 29.682   -15 10 15.63  .68828 1.5607 133.1 20.9 .454  31
2024 09 09 13  02 18 33.374   -15 10 33.54  .68778 1.5604 133.2 20.9 .466  30
2024 09 09 14  02 18 37.066   -15 10 51.46  .68728 1.5600 133.2 20.9 .479  30
2024 09 09 15  02 18 40.758   -15 11 09.39  .68678 1.5597 133.2 20.9 .491  30
2024 09 09 16  02 18 44.450   -15 11 27.33  .68627 1.5593 133.2 20.9 .504  29
2024 09 09 17  02 18 48.142   -15 11 45.28  .68577 1.5589 133.2 20.9 .517  29